Preview of NWS' New Version of Forecast
This preview is not operational and should not be used for support decisions.

Regional Weather Roundup (RWR)

Issued by National Weather Service (NWS)

                            
000
ASUS45 KCYS 241510
RWRWY 

WYOMING REGIONAL WEATHER ROUNDUP
NATIONAL WEATHER SERVICE CHEYENNE WY
900 AM MDT MON JUN 24 2019

NOTE:  "FAIR" INDICATES FEW OR NO CLOUDS BELOW 12,000 FEET
WITH NO SIGNIFICANT WEATHER AND/OR OBSTRUCTIONS TO VISIBILITY.

WYZ001-241600-
...YELLOWSTONE NATIONAL PARK...
  
CITY           SKY/WX    TMP DP  RH WIND       PRES   REMARKS
LK YELLOWSTONE   N/A     49  33  54 MISG      30.06S                  
W YELLOWSTONE  NOT AVBL                                               

$$
WYZ002>013-054>058-071-098>099-241600-
...NORTHERN WYOMING...
  
CITY           SKY/WX    TMP DP  RH WIND       PRES   REMARKS
JACKSON        MOSUNNY   55  34  45 S15       30.04R                  
CODY           CLOUDY    56  42  59 NE7       29.95R                  
GREYBULL       MOSUNNY   67  41  38 N15G21    29.86R                  
WORLAND        SUNNY     65  45  48 NW9       29.88R                  
SHERIDAN       PTSUNNY   61  48  62 NW13      29.89S                  
BUFFALO        SUNNY     58  47  66 N16G25    29.91S                  
GILLETTE       MOSUNNY   61  49  64 NW13      29.87S                  
HULETT         FAIR      59  46  63 SW5       29.88R                  
NEWCASTLE      FAIR      59  45  58 W8        29.88R                  

$$
WYZ014>020-022>026-101>103-241600-
...CENTRAL WYOMING...
  
CITY           SKY/WX    TMP DP  RH WIND       PRES   REMARKS
BIG PINEY      MOSUNNY   54  32  43 CALM      30.08S                  
PINEDALE       MOSUNNY   52  30  43 NW3       30.08S                  
DUBOIS         PTSUNNY   52  32  46 N8        30.01R                  
LANDER         CLOUDY    59  39  47 NE5       29.93R                  
RIVERTON       CLOUDY    64  35  34 NW13      29.93S                  
CASPER         SUNNY     63  40  42 SW15      29.91S                  
DOUGLAS        SUNNY     64  48  56 NW7       29.90S                  

$$
WYZ021-027>030-104>119-241600-
...SOUTHERN WYOMING...
  
CITY           SKY/WX    TMP DP  RH WIND       PRES   REMARKS
EVANSTON       SUNNY     56  32  40 SW8       30.12F                  
KEMMERER       SUNNY     55  28  35 W9        30.12S                  
FORT BRIDGER   NOT AVBL                                               
ROCK SPRINGS   SUNNY     56  30  37 SW9       30.10S                  
DIXON          PTSUNNY   58  33  39 S16G22    30.13R                  
RAWLINS        SUNNY     61  35  37 W25G33    30.04S                  
SARATOGA       FAIR      59  34  38 SW20G30   30.08S                  
LARAMIE        SUNNY     59  35  40 W17       30.05R                  
CHEYENNE       SUNNY     59  39  47 W16       30.01S                  
TORRINGTON     SUNNY     61  48  62 CALM      29.87F                  
PINE BLUFFS    FAIR      61  45  55 SW8       29.96F                  

$$